When you browse on this site, cookies collect data to enhance your experience and personalize the content and advertising you see.
Visit our Privacy Policy to learn more. By continuing to use the site, you agree to this use of cookies and data.
  • In Hungary
  • List of Countries
  • For 7 days
  • Water Temperature
  • Satellite Maps
  • Weather Map
  • News
  • Weather Widgets
  • user-avatar
    Login

    Hourly Weather Katy Rybackie

    Today, 22 April, Monday

    Time Temperature Precipitation Wind Pressure Humidity
    00:00 +4°C° 0 mm 3 mps 767 mmHg 79%
    01:00 +4°C° 0 mm 3 mps 767 mmHg 81%
    02:00 +4°C° 0 mm 3 mps 767 mmHg 84%
    03:00 +3°C° 0 mm 3 mps 767 mmHg 88%
    04:00 +3°C° 0 mm 3 mps 767 mmHg 91%
    05:00 +5°C° 0 mm 3 mps 767 mmHg 88%
    06:00 +7°C° 0 mm 3 mps 767 mmHg 85%
    07:00 +7°C° 0 mm 4 mps 767 mmHg 82%
    08:00 +10°C° 0 mm 4 mps 767 mmHg 75%
    09:00 +12°C° 0 mm 4 mps 767 mmHg 67%
    10:00 +14°C° 0 mm 4 mps 767 mmHg 60%
    11:00 +15°C° 0 mm 4 mps 767 mmHg 57%
    12:00 +17°C° 0 mm 4 mps 767 mmHg 54%
    13:00 +18°C° 0 mm 4 mps 767 mmHg 51%
    14:00 +18°C° 0 mm 4 mps 767 mmHg 51%
    15:00 +18°C° 0 mm 4 mps 767 mmHg 52%
    16:00 +18°C° 0 mm 4 mps 767 mmHg 52%
    17:00 +16°C° 0 mm 5 mps 767 mmHg 57%
    18:00 +14°C° 0 mm 5 mps 767 mmHg 63%
    19:00 +13°C° 0 mm 5 mps 767 mmHg 68%
    20:00 +12°C° 0 mm 5 mps 767 mmHg 67%
    21:00 +10°C° 0 mm 5 mps 768 mmHg 67%
    22:00 +9°C° 0 mm 5 mps 768 mmHg 66%
    23:00 +9°C° 0 mm 5 mps 768 mmHg 65%

    Tomorrow, 23 April, Tuesday

    Time Temperature Precipitation Wind Pressure Humidity
    00:00 +8°C° 0 mm 5 mps 768 mmHg 63%
    01:00 +8°C° 0 mm 5 mps 768 mmHg 61%
    02:00 +7°C° 0 mm 6 mps 768 mmHg 60%
    03:00 +7°C° 0 mm 6 mps 768 mmHg 59%
    04:00 +7°C° 0 mm 6 mps 768 mmHg 58%
    05:00 +8°C° 0 mm 7 mps 768 mmHg 57%
    06:00 +9°C° 0 mm 7 mps 768 mmHg 55%
    07:00 +10°C° 0 mm 8 mps 768 mmHg 53%
    08:00 +11°C° 0 mm 8 mps 768 mmHg 49%
    09:00 +13°C° 0 mm 9 mps 768 mmHg 45%
    10:00 +15°C° 0 mm 9 mps 768 mmHg 41%
    11:00 +16°C° 0 mm 9 mps 767 mmHg 41%
    12:00 +17°C° 0 mm 9 mps 767 mmHg 40%
    13:00 +17°C° 0 mm 9 mps 766 mmHg 40%
    14:00 +17°C° 0 mm 9 mps 766 mmHg 41%
    15:00 +17°C° 0 mm 9 mps 766 mmHg 43%
    16:00 +17°C° 0 mm 8 mps 765 mmHg 45%
    17:00 +15°C° 0 mm 8 mps 765 mmHg 48%
    18:00 +14°C° 0 mm 7 mps 765 mmHg 52%
    19:00 +12°C° 0 mm 7 mps 765 mmHg 55%
    20:00 +11°C° 0 mm 7 mps 765 mmHg 55%
    21:00 +11°C° 0 mm 7 mps 765 mmHg 54%
    22:00 +11°C° 0 mm 8 mps 765 mmHg 53%
    23:00 +10°C° 0 mm 8 mps 765 mmHg 54%

    Day after tomorrow, 24 April, Wednesday

    Time Temperature Precipitation Wind Pressure Humidity
    00:00 +10°C° 0 mm 8 mps 764 mmHg 54%
    01:00 +10°C° 0 mm 8 mps 764 mmHg 54%
    02:00 +10°C° 0 mm 8 mps 764 mmHg 55%
    03:00 +10°C° 0 mm 8 mps 764 mmHg 55%
    04:00 +10°C° 0 mm 9 mps 764 mmHg 56%
    05:00 +10°C° 0 mm 9 mps 763 mmHg 56%
    06:00 +10°C° 0 mm 9 mps 763 mmHg 57%
    07:00 +11°C° 0 mm 10 mps 763 mmHg 58%
    08:00 +12°C° 0.1 mm 9 mps 763 mmHg 58%
    09:00 +12°C° 0.1 mm 8 mps 763 mmHg 58%
    10:00 +13°C° 0.1 mm 8 mps 763 mmHg 58%
    11:00 +15°C° 0 mm 8 mps 763 mmHg 56%
    12:00 +16°C° 0 mm 8 mps 763 mmHg 53%
    13:00 +18°C° 0 mm 9 mps 762 mmHg 51%
    14:00 +18°C° 0 mm 8 mps 762 mmHg 52%
    15:00 +18°C° 0 mm 8 mps 762 mmHg 53%
    16:00 +20°C° 0 mm 8 mps 762 mmHg 54%
    17:00 +18°C° 0 mm 8 mps 762 mmHg 58%
    18:00 +17°C° 0 mm 7 mps 762 mmHg 63%
    19:00 +15°C° 0 mm 7 mps 762 mmHg 67%
    20:00 +15°C° 0 mm 7 mps 762 mmHg 65%
    21:00 +15°C° 0 mm 7 mps 762 mmHg 64%
    22:00 +15°C° 0 mm 8 mps 762 mmHg 62%
    23:00 +14°C° 0 mm 7 mps 762 mmHg 66%

    25 April, Thursday

    Time Temperature Precipitation Wind Pressure Humidity
    00:00 +14°C° 0 mm 7 mps 762 mmHg 70%
    01:00 +13°C° 0 mm 6 mps 762 mmHg 74%
    02:00 +13°C° 0 mm 6 mps 762 mmHg 78%
    03:00 +11°C° 0 mm 6 mps 762 mmHg 82%
    04:00 +10°C° 0 mm 6 mps 762 mmHg 85%
    05:00 +11°C° 0 mm 6 mps 762 mmHg 83%
    06:00 +13°C° 0 mm 6 mps 762 mmHg 80%
    07:00 +14°C° 0 mm 6 mps 762 mmHg 78%
    08:00 +16°C° 0 mm 6 mps 762 mmHg 73%
    09:00 +17°C° 0 mm 5 mps 762 mmHg 68%
    10:00 +20°C° 0 mm 5 mps 762 mmHg 62%
    11:00 +21°C° 0 mm 5 mps 762 mmHg 59%
    12:00 +23°C° 0 mm 5 mps 762 mmHg 56%
    13:00 +25°C° 0 mm 5 mps 761 mmHg 53%
    14:00 +25°C° 0 mm 5 mps 761 mmHg 53%
    15:00 +25°C° 0 mm 4 mps 761 mmHg 54%
    16:00 +25°C° 0 mm 4 mps 761 mmHg 54%
    17:00 +22°C° 0.1 mm 4 mps 761 mmHg 61%
    18:00 +20°C° 0.1 mm 3 mps 761 mmHg 67%
    19:00 +19°C° 0.1 mm 3 mps 761 mmHg 74%
    20:00 +18°C° 0 mm 3 mps 761 mmHg 77%
    21:00 +17°C° 0 mm 3 mps 761 mmHg 81%
    22:00 +16°C° 0 mm 3 mps 761 mmHg 84%
    23:00 +16°C° 0 mm 3 mps 761 mmHg 86%

    26 April, Friday

    Time Temperature Precipitation Wind Pressure Humidity
    00:00 +14°C° 0 mm 3 mps 760 mmHg 88%
    01:00 +14°C° 0 mm 3 mps 760 mmHg 90%
    02:00 +14°C° 0 mm 3 mps 760 mmHg 90%
    03:00 +14°C° 0 mm 2 mps 760 mmHg 91%
    04:00 +14°C° 0 mm 2 mps 760 mmHg 91%
    05:00 +15°C° 0 mm 2 mps 760 mmHg 87%
    06:00 +17°C° 0 mm 2 mps 759 mmHg 83%
    07:00 +18°C° 0 mm 2 mps 759 mmHg 79%
    08:00 +20°C° 0 mm 3 mps 759 mmHg 73%
    09:00 +21°C° 0 mm 3 mps 759 mmHg 66%
    10:00 +24°C° 0 mm 3 mps 758 mmHg 59%
    11:00 +25°C° 0.3 mm 3 mps 758 mmHg 57%
    12:00 +26°C° 0.3 mm 3 mps 758 mmHg 54%
    13:00 +26°C° 0.3 mm 3 mps 757 mmHg 52%
    14:00 +25°C° 0 mm 3 mps 757 mmHg 56%
    15:00 +25°C° 0 mm 4 mps 756 mmHg 60%
    16:00 +23°C° 0 mm 4 mps 756 mmHg 64%
    17:00 +22°C° 0 mm 4 mps 756 mmHg 67%
    18:00 +21°C° 0 mm 3 mps 755 mmHg 71%
    19:00 +20°C° 0 mm 3 mps 755 mmHg 74%
    20:00 +19°C° 0 mm 3 mps 755 mmHg 75%
    21:00 +18°C° 0 mm 3 mps 755 mmHg 77%
    22:00 +18°C° 0 mm 2 mps 755 mmHg 78%
    23:00 +17°C° 0 mm 3 mps 755 mmHg 80%

    27 April, Saturday

    Time Temperature Precipitation Wind Pressure Humidity
    00:00 +17°C° 0 mm 3 mps 755 mmHg 82%
    01:00 +17°C° 0 mm 3 mps 755 mmHg 85%
    02:00 +15°C° 0.1 mm 4 mps 755 mmHg 88%
    03:00 +15°C° 0.1 mm 4 mps 755 mmHg 91%
    04:00 +14°C° 0.1 mm 5 mps 756 mmHg 94%
    05:00 +14°C° 0.3 mm 5 mps 756 mmHg 90%
    06:00 +15°C° 0.3 mm 6 mps 757 mmHg 86%
    07:00 +15°C° 0.3 mm 6 mps 757 mmHg 82%
    08:00 +15°C° 0 mm 6 mps 758 mmHg 80%
    09:00 +15°C° 0 mm 6 mps 759 mmHg 78%
    10:00 +15°C° 0 mm 7 mps 759 mmHg 75%
    11:00 +15°C° 0 mm 6 mps 760 mmHg 74%
    12:00 +14°C° 0 mm 6 mps 761 mmHg 72%
    13:00 +14°C° 0 mm 6 mps 761 mmHg 70%
    14:00 +15°C° 0 mm 5 mps 761 mmHg 64%
    15:00 +15°C° 0 mm 5 mps 762 mmHg 57%
    16:00 +16°C° 0 mm 5 mps 762 mmHg 51%
    17:00 +14°C° 0 mm 4 mps 762 mmHg 55%
    18:00 +13°C° 0 mm 3 mps 762 mmHg 59%
    19:00 +11°C° 0 mm 3 mps 762 mmHg 63%
    20:00 +10°C° 0 mm 2 mps 763 mmHg 64%
    21:00 +11°C° 0 mm 1 mps 763 mmHg 65%
    22:00 +10°C° 0 mm 1 mps 763 mmHg 67%
    23:00 +10°C° 0 mm 1 mps 763 mmHg 66%
    Show more